Terminal Aerodrome Forecast
Issued by NWS

Home | Current Version | Previous Version | Text Only | Print | Product List | Glossary On
Versions: 1 2 3 4 5 6 7 8 9 10 11 12 13 14 15 16 17 18 19 20 21 22 23 24 25 26 27 28 29 30 31 32 33 34 35 36 37 38 39 40 41 42 43 44 45 46 47 48
000
FTUS41 KGYX 020529
TAFMHT
TAF
KMHT 020529Z 0206/0306 05008KT 3SM -RA BR SCT008 BKN015 OVC025
      TEMPO 0206/0210 2SM RA BR BKN008 OVC012
     FM021000 02009KT 5SM -SHRA BR BKN008 OVC012
     FM021600 03011KT P6SM SCT015 BKN025 OVC035
     FM030200 VRB04KT P6SM BKN025 OVC040=

USA.gov is the U.S. government's official web portal to all federal, state and local government web resources and services.